Location: Nied?wied?
(53.3665°N, 14.8184°E)
Time: 21:18:27
(UTC+00:00)

Cosmos 1378 - Pass Details

Date: 03 March 2021
Orbit: 489 x 501 km, 82.5° (Epoch: 12 April)

Event Time Altitude Azimuth Distance (km) Brightness Sun altitude
Rises 18:23:13 0° 353° (N) 2,608 7.0 -15.7°
Reaches altitude 10° 18:25:27 10° 2° (N) 1,717 5.9 -16.1°
Maximum altitude 18:29:00 39° 73° (ENE) 759 3.6 -16.6°
Enters shadow 18:29:29 37° 93° (E) 785 3.6 -16.6°
